Regional Weather Roundup
Issued by NWS

Home | Current Version | Previous Version | Text Only | Print | Product List | Glossary Off
Versions: 1 2 3 4 5 6 7 8 9 10 11 12 13 14 15 16 17 18 19 20 21 22 23 24 25 26 27

000
ASUS45 KTFX 250110
RWRMT
MONTANA REGIONAL WEATHER ROUNDUP
NATIONAL WEATHER SERVICE GREAT FALLS MT
700 PM MDT SUN JUL 24 2016

NOTE: "FAIR" INDICATES FEW OR NO CLOUDS BELOW 12000 FEET WITH NO
SIGNIFICANT WEATHER AND/OR OBSTRUCTIONS TO VISIBILITY.

MTZ001>007-043-250200-
WEST OF THE DIVIDE

CITY           SKY/WX    TMP DP  RH WIND       PRES   REMARKS
KALISPELL      SUNNY     81  48  31 SE10      30.02F
MISSOULA       SUNNY     87  40  19 N8        30.01F
BUTTE          SUNNY     83  30  14 VRB5      30.12F
MULLAN PASS    SUNNY     68  46  45 VRB3      30.22F
ANACONDA         N/A     79  43  27 N8        30.09F
DEER LODGE       N/A     82  39  21 N8        30.11F
EUREKA           N/A     88  46  23 CALM      29.99F
HAMILTON         N/A     82  46  28 CALM      30.03F
LIBBY            N/A     84  46  26 CALM      30.00F
PLAINS           N/A     88  47  24 W7        30.00F
RONAN            N/A     82  45  27 E2        30.08F
THOMPSON FALLS   N/A     86  48  26 W6        30.03
$$

MTZ008-052>055-250200-
SOUTHWEST MONTANA

CITY           SKY/WX    TMP DP  RH WIND       PRES   REMARKS
BOZEMAN        SUNNY     85  38  18 NW5       30.06F
DILLON         SUNNY     84  48  28 W3        30.07F
W YELLOWSTONE  SUNNY     77  23  13 SW12G21   30.24S
ENNIS          SUNNY     82  32  16 CALM      30.15F
THREE FORKS      N/A     86  86 100 E1        30.03F HX 112
TWIN BRIDGES     N/A     87  40  19 S3        30.06F
$$

MTZ009-010-012-014-046-048-049-054-250200-
EAST SLOPES AND CENTRAL MONTANA

CITY           SKY/WX    TMP DP  RH WIND       PRES   REMARKS
CUT BANK         N/A     81  43  26 W18       30.00F
GREAT FALLS    SUNNY     85  32  15 VRB5      30.00F
MALMSTROM AFB  SUNNY     84  35  17 W2        29.99F
HELENA         SUNNY     87  36  16 E6        30.01F
CHOTEAU          N/A     84  37  18 SE6G14    30.02F
CONRAD           N/A     86  45  23 SW1       30.03F
$$

MTZ011-013-016-021-045-047-050-051-250200-
NORTH CENTRAL MONTANA

CITY           SKY/WX    TMP DP  RH WIND       PRES   REMARKS
HAVRE          SUNNY     85  43  22 S9        29.95F
LEWISTOWN      SUNNY     82  47  29 N3        30.06F
N BAR RANCH      N/A     81  39  22 NE9       30.10S
CHINOOK          N/A     84  45  24 SW5       29.96F
$$

MTZ017>020-022>027-061-062-250200-
NORTHEAST MONTANA

CITY           SKY/WX    TMP DP  RH WIND       PRES   REMARKS
GLASGOW        SUNNY     85  46  25 NW5       29.96F
JORDAN           N/A     89  41  18 N7        29.98F
SIDNEY         MOSUNNY   86  55  34 E3        29.97F
WOLF POINT     SUNNY     89  44  20 SW9       29.95S
PLENTYWOOD       N/A     82  55  39 N5        29.98S
POPLAR           N/A     88  48  25 CALM      29.96S
SCOBEY           N/A     87  61  41 CALM      29.99S
$$

MTZ028>42-056>058-250200-
SOUTHCENTRAL AND SOUTHEAST MONTANA

CITY           SKY/WX    TMP DP  RH WIND       PRES   REMARKS
BAKER          SUNNY     86  46  24 E8        30.03F
BILLINGS       SUNNY     88  37  16 S5        30.01F
LIVINGSTON     SUNNY     88  31  13 N7        30.06S
MILES CITY     SUNNY     91  40  16 CALM      29.96F
EKALAKA          N/A     87  40  19 W6        30.02F
FORSYTH          N/A     90  43  19 NW5       29.96F
ROUNDUP          N/A     87  37  17 CALM      29.93F
$$

REGIONAL REPORTS...DAKOTAS

CITY           SKY/WX    TMP DP  RH WIND       PRES   REMARKS
WILLISTON      SUNNY     87  50  27 N6        29.97F
MINOT          SUNNY     81  59  47 N6        29.98S
DICKINSON      SUNNY     82  48  30 CALM      30.01F
CROSBY           N/A     77  64  65 N3        30.00S
WATFORD CITY     N/A    N/A N/A N/A MISG        N/A
BISMARCK       SUNNY     80  56  43 NE8       30.01F
GRAND FORKS    SUNNY     76  61  59 W9        29.91R
FARGO          CLEAR     79  58  48 W9        29.94S
BUFFALO SD       N/A     88  43  20 SE16      29.98F
RAPID CITY     SUNNY     83  49  30 SE13      30.07F
$$

REGIONAL REPORTS...WYOMING/IDAHO/WASHINGTON

CITY           SKY/WX    TMP DP  RH WIND       PRES   REMARKS
GILLETTE       SUNNY     85  38  18 SE7       30.08F
SHERIDAN       SUNNY     91  39  16 N3        30.04S
BUFFALO WY     SUNNY     86  38  18 E10       30.12S
CODY           SUNNY     84  36  17 SE3       30.10S
YELLOWSTONE LA   N/A     73  22  14 VRB5      30.35S
IDAHO FALLS    SUNNY     85  24  11 S9        30.10F
SALMON         SUNNY     88  43  20 NW5       29.97S
BOISE          SUNNY     91  31  11 NW7       29.96F
SPOKANE        MOSUNNY   86  43  22 N9        30.01F
$$

REGIONAL REPORTS...ALBERTA

CITY           SKY/WX    TMP DP  RH WIND       PRES   REMARKS
EDMONTON       SUNNY     75  52  43 NW9       29.86S
CALGARY        MOSUNNY   75  54  46 S14       29.94F
MEDICINE HAT   SUNNY     81  54  39 SW8       29.93F
$$

REGIONAL REPORTS...SASKATCHEWAN

CITY           SKY/WX    TMP DP  RH WIND       PRES   REMARKS
SWIFT CURRENT  SUNNY     77  63  61 S6        29.97F
REGINA         SUNNY     75  54  46 NW5       29.97F
SASKATOON      MOSUNNY   77  59  53 SW13      29.92F
$$




USA.gov is the U.S. government's official web portal to all federal, state and local government web resources and services.